Skip Page Navigation
NASA JPL Caltech
NASA Logo - Jet Propulsion Laboratory + View the NASA Portal
+ Center for Near-Earth Object Studies
JPL Home Earth Solar System Stars & Galaxies Technology
JPL Solar System Dynamics
BODIES ORBITS EPHEMERIDES TOOLS PHYSICAL DATA DISCOVERY FAQ SITE MAP
JPL Small-Body Database Browser
Search: [ help ]  
305521 (2008 FV19)
Classification: Main-belt Asteroid          SPK-ID: 2305521
Ephemeris | Orbit Diagram | Orbital Elements | Mission Design | Physical Parameters | Discovery Circumstances | Close-Approach Data ]

[ show orbit diagram ]
Orbital Elements at Epoch 2459000.5 (2020-May-31.0) TDB
Reference: JPL 6 (heliocentric ecliptic J2000)
 Element Value Uncertainty (1-sigma)   Units 
e .1708181236250811 6.0879e-08  
a 3.124177684820345 3.9644e-08 au
q 2.590511514827984 1.9196e-07 au
i 1.056301259498731 8.1087e-06 deg
node 22.74739090815015 0.00045503 deg
peri 31.80780851385784 0.000456 deg
M 178.1512854971901 3.0475e-05 deg
tp 2458002.366859243874
(2017-Sep-05.86685924)
0.00016158 TDB
period 2016.981969394058
5.52
3.8391e-05
1.051e-07
d
yr
n .1784844909189502 3.3973e-09 deg/d
Q 3.657843854812706 4.6416e-08 au
  Orbit Determination Parameters
   # obs. used (total)      131  
   data-arc span      7137 days (19.54 yr)  
   first obs. used      2000-10-06  
   last obs. used      2020-04-21  
   planetary ephem.      DE431  
   SB-pert. ephem.      SB431-N16  
   condition code      0  
   norm. resid. RMS      .65011  
   source      ORB  
   producer      Otto Matic  
   solution date      2020-May-21 20:00:14  

Additional Information
 Earth MOID = 1.60209 au 
 Jupiter MOID = 1.70706 au 
 T_jup = 3.192 
[ show covariance matrix ]

Ephemeris | Orbit Diagram | Orbital Elements | Mission Design | Physical Parameters | Discovery Circumstances | Close-Approach Data ]

Physical Parameter Table
Parameter Symbol Value Units Sigma Reference Notes
absolute magnitude H 16.4   n/a MPO391593  

305521 (2008 FV19)          Discovered 2008-Mar-27 by Mt. Lemmon Survey at Mount Lemmon
Reference: 20111110/Numbers.arcLast Updated: 2011-11-14

[ show close-approach data ]
Alternate Designations
 2008 FV19 = 2006 XT32 
Ephemeris | Orbit Diagram | Orbital Elements | Mission Design | Physical Parameters | Discovery Circumstances | Close-Approach Data ]
ABOUT SSD CREDITS/AWARDS PRIVACY/COPYRIGHT GLOSSARY LINKS
FirstGov 2020-Aug-05 05:41 UT
(server date/time)  
NASA Home Page
Site Manager:   Ryan S. Park
Webmaster  Alan B. Chamberlin